Current Version              Previous Version:    01  02  03  04  05  06  07  08  09  10  11  12  13  14  15  16  17  18  19  20  21  22  23  24  25  26  27  28  29  30  
   31  32  33  34  35  36  37  38  39  40  41  42  43  44  45  46  47  48  49  50  51  52  53  54  55  56  57  58  59  60  

[Printable]
935
ASUS44 KEWX 250710
RWRTX
SOUTH TEXAS REGIONAL WEATHER ROUNDUP
NATIONAL WEATHER SERVICE AUSTIN/SAN ANTONIO TX
200 AM CDT SAT OCT 25 2014

NOTE: "FAIR" INDICATED FEW OR NO CLOUDS BELOW 12,000 FEET WITH NO
SIGNIFICANT WEATHER AND/OR OBSTRUCTIONS TO VISIBILITY.

* - THESE STATIONS ARE NOT NWS OR FAA STATIONS...AND ARE NOT SUBJECT
    TO NWS AND FAA QUALITY CONTROL.

TXZ171-172-183>190-250800-
TEXAS HILL COUNTRY AND EDWARDS PLATEAU

CITY           SKY/WX    TMP DP  RH WIND       PRES   REMARKS
JUNCTION       CLEAR     62  56  80 CALM      30.17S
*LLANO         NOT AVBL
BURNET         CLEAR     64  57  78 CALM      30.18S
*HORSESHOE BAY CLEAR     69  56  64 S3        30.15S
*KERRVILLE     CLEAR     59  56  92 CALM      30.19R
*FREDERICKSBRG CLEAR     58  55  91 CALM      30.18S
*ROCKSPRINGS   CLEAR     64  55  72 CALM      30.21S
*BOERNE STAGE  CLEAR     57  54  88 CALM      30.19R
*CASTROVILLE   CLEAR     67  55  63 E3        30.17S
HONDO          CLEAR     58  53  84 E3        30.17S
*UVALDE        CLEAR     68  60  75 CALM      30.16R
DEL RIO        CLEAR     68  62  81 E6        30.12S
LAUGHLIN AFB   CLEAR     64  61  88 E5        30.13S
CARRIZO SPRGS  CLEAR     66  57  72 S5        30.13S
$$

TXZ173-191>194-202-209-217>225-228-250800-
CENTRAL AND SOUTH CENTRAL TEXAS

CITY           SKY/WX    TMP DP  RH WIND       PRES   REMARKS
GEORGETOWN     CLEAR     64  57  77 SW5       30.15S
AUSTIN/BERGSTM CLEAR     57  56  96 CALM      30.15S
AUSTIN/MABRY   CLEAR     67  58  72 CALM      30.16S
*AUSTIN/EXEC   PTCLDY    64  57  77 SW5       30.15S
*LAGO VISTA    CLEAR     69  58  68 S7        30.16S
SAN MARCOS     CLEAR     64  54  68 CALM      30.16S
NEW BRAUNFELS  CLEAR     64  56  75 CALM      30.14S
RANDOLPH AFB   CLEAR     63  56  78 W1        30.16R
PT SAN ANTONIO CLEAR     66  57  72 SE2       30.14S
SAN ANTONIO    CLEAR     70  59  68 S5        30.16S
STINSON FIELD  CLEAR     68  58  70 CALM      30.14S
*PLEASANTON    CLEAR     66  58  76 CALM      30.15S
*LA GRANGE     CLEAR     65  59  81 SW3       30.13S
*GIDDINGS      CLEAR     64  56  77 S3        30.18S
*GONZALES      CLEAR     65  60  83 CALM      30.14S
$$

TXZ163>164-176>182-195>201-210>213-226-227-235-250800-
SOUTHEAST TEXAS

CITY           SKY/WX    TMP DP  RH WIND       PRES   REMARKS
COLLEGE STN    CLEAR     65  56  72 S3        30.13S
*BRYAN         CLEAR     62  56  82 SE6       30.14F
*CALDWELL      CLEAR     61  59  94 CALM      30.16F
*CROCKETT      CLEAR     57  57 100 CALM      30.16F
*BRENHAM       CLEAR     62  57  84 CALM      30.14F
HUNTSVILLE     CLEAR     62  56  80 S3        30.14S
CONROE         CLEAR     54  53  97 CALM      30.15R
HOUSTON BUSH   CLEAR     59  58  96 CALM      30.13S
HOUSTON HOBBY  CLEAR     61  57  87 CALM      30.12F
*HOUSTON SW AP CLEAR     51  51 100 CALM      30.14S
PEARLAND       CLEAR     60  56  86 CALM      30.14F
HOUSTON HOOKS  CLEAR     58  57  97 CALM      30.14R FOG
ELLINGTON FLD  CLEAR     64  57  77 CALM      30.13F
SUGAR LAND     CLEAR     60  57  89 CALM      30.13F
*HOUSTON EXEC  CLEAR     63 N/A N/A SW3       30.14F
*CLEVELAND MUN NOT AVBL
*WHARTON       CLEAR     58  54  85 CALM      30.14F
*COLUMBUS      FAIR      57  55  93 CALM      30.14S
$$

TXZ214>216-236>238-250800-
THE UPPER TEXAS COAST

CITY           SKY/WX    TMP DP  RH WIND       PRES   REMARKS
*ORANGE        CLEAR    N/A N/A N/A CALM      30.15R
PORT ARTHUR    CLEAR     54  52  93 NW3       30.12F
GALVESTON      CLEAR     69  62  78 N3        30.13F
ANGLETON       CLEAR     55  55 100 CALM      30.13F
*BAY CITY        N/A     58  58  98 CALM      30.13F
PALACIOS       CLEAR     62  58  86 CALM      30.13F
$$

TXZ229>234-239>247-250800-
TEXAS COASTAL BEND AND RIO GRANDE PLAINS

CITY           SKY/WX    TMP DP  RH WIND       PRES   REMARKS
VICTORIA       CLEAR     62  58  86 CALM      30.14F
*BEEVILLE      CLEAR     65  61  88 CALM      30.14S
ROCKPORT       CLEAR     67  62  84 SE3       30.13S
*PORT ARANSAS  CLEAR     73  62  68 E5        30.13S
*PORT LAVACA   CLEAR     62  59  90 CALM      30.13F
*INGLESIDE     CLEAR     68  62  82 CALM      30.13R
CORPUS CHRISTI CLEAR     66  62  87 SW3       30.13S
CORPUS NAS     CLEAR     70  63  78 CALM      30.12S
*ROBSTOWN      NOT AVBL
ALICE          CLEAR     65  60  84 SW5       30.13F
KINGSVILLE NAS CLEAR     64  61  90 W5        30.13S
COTULLA        CLEAR     69  58  67 S6        30.14S
*FAITH RANCH   CLEAR     72  59  64 S7        30.14S
LAREDO         CLEAR     71  61  70 SE7       30.17R
$$

TXZ248>255-250800-
DEEP SOUTH TEXAS

CITY           SKY/WX    TMP DP  RH WIND       PRES   REMARKS
BROWNSVILLE    CLEAR     67  65  93 CALM      30.13S
PORT ISABEL    CLEAR     67  64  90 CALM      30.12F
*SOUTH PADRE   CLEAR    N/A N/A N/A CALM      30.11F
HARLINGEN      CLEAR     66  64  93 CALM      30.12F
*HEBBRONVILLE  CLEAR     63  60  90 S5        30.16S
MCALLEN        CLEAR     67  64  90 CALM      30.14F
*WESLACO       CLEAR     65  61  88 CALM      30.14S
FALFURRIAS     CLEAR     63  59  87 S3        30.13S
EDINBURG       CLEAR     67  63  85 CALM      30.14F
*ZAPATA        CLEAR     67  61  80 SE3       30.14S
$$

TXZ213>215-236>238-242>244-246-247-251-254-255-250800-
CMAN STATIONS

STATION/POSITION TIME  TEMP    WIND        PRES    WAVE
                       AIR SEA DIR/SP/G            HT/PER
                 (UTC) (F)     (DEG/KT/KT) (MB)    (FT/S)
SABINE PASS      0700   66 72   10/  4/  5 1020.1
SEA RIM ST PARK  0700   63     340/  3/  3 1020.7
NORTH JETTY/GLS  0700   73 75   90/  5/  6   N/A
EAGLE POINT      0700   72 73   90/  4/  5 1020.2
MORGANS POINT    0700   69      80/  3/  4 1020.1
MISSION/ARANSAS  0600          110/  6     1021.0
PORT O`CONNOR    0700           90/  6/  8   N/A
PORT ARANSAS     0700   77 78   90/  7/  8 1020.9
MALAQUITE BEACH  0700   77 78   90/  8/ 10 1019.6
BAFFIN BAY       0700   75 82  110/  5/  5 1020.1
PORT ISABEL      0700   74 78   60/  1/  3 1019.8
$$

GMZ080-GMZ150>470-250800-
OFFSHORE BUOY REPORTS

STATION/POSITION TIME  TEMP    WIND        PRES    WAVE
                       AIR SEA DIR/SP/G            HT/PER
                 (UTC) (F)     (DEG/KT/KT) (MB)    (FT/S)
20 E GALVESTON   0700   74 77   40/  8/ 10 1019.7    1/ 7
90 E PT ARANSAS  0700   76 81   40/ 10/ 12 1020.3    3/ 8
35 NE PT MANSFLD 0700   77 80   70/  8/ 10 1019.6    3/ 8
200 E PT ISABEL  0700   75 81   30/  8/ 12 1018.7    4/ 8
$$